Location: Ajisawe
(8.4333°N, 4.3833°E)
Time: 23:59:27
(UTC+00:00)

Courier 1B Rocket - Pass Details

Date: 25 April 2021
Orbit: 920 x 1202 km, 28.3° (Epoch: 13 May)

Event Time Altitude Azimuth Distance (km) Brightness Sun altitude
Rises 11:50:51 0° 212° (SSW) 3,700 8.0 84.4°
Reaches altitude 10° 11:54:25 10° 194° (SSW) 2,703 7.4 84.0°
Maximum altitude 11:58:50 19° 151° (SSE) 2,082 7.0 83.3°
Drops below altitude 10° 12:03:06 10° 108° (ESE) 2,620 7.3 82.6°
Sets 12:06:29 0° 90° (E) 3,547 7.9 81.9°
